Temperature
17 17 17 17 17 17 17 17 17 16 16 16 16 16 16 16 16 16 16 16 16 16 16 16 16 16 15 15 15 15 15 15 15 15 15 15 15 15
17 17 17 17 17 17 17 16 16 16 16 16 16 16 16 16 16 16 16 16 15 15 15 15 15 15 15 15 15 15 15 15 15 15 15 15 15 15
16 16 16 16 16 16 16 16 16 16 16 16 16 16 15 15 16 15 15 15 15 15 15 15 15 15 15 15 15 15 15 15 15 15 15 15 15 15
16 16 16 16 16 16 16 16 16 16 16 15 15 15 15 15 15 15 15 15 15 15 15 15 15 15 15 15 15 15 15 15 15 15 15 15 15 14
15 15 15 15 15 15 15 15 15 15 15 15 15 15 15 15 15 15 15 15 15 15 15 15 15 15 15 15 15 15 15 15 15 14 14 14 14 14
15 15 15 15 15 15 15 15 15 15 15 15 15 14 14 14 15 14 14 14 15 15 15 15 15 15 15 15 15 15 14 14 14 14 14 14 14 14
15 14 14 14 14 14 14 14 14 15 14 14 14 14 14 14 14 14 14 14 14 14 14 14 14 15 15 14 14 14 14 14 14 14 14 14 14 14
14 14 14 14 14 14 14 14 14 14 14 14 14 14 13 13 14 14 14 14 14 14 14 14 14 14 14 14 14 14 14 14 14 14 14 14 14 14
14 14 14 14 14 14 14 14 14 14 14 14 13 13 13 13 13 14 14 14 14 14 14 14 14 14 14 14 14 14 14 14 14 13 13 13 13 13
14 14 14 14 13 13 14 14 13 13 13 13 13 13 13 13 13 13 13 13 13 13 13 13 13 13 13 14 14 14 14 14 13 13 13 13 13 13
13 13 13 13 13 13 13 13 13 13 13 12 13 13 13 13 13 13 13 13 13 13 13 13 13 13 13 13 13 13 13 13 13 13 13 13 13 13
13 13 13 13 13 12 12 12 12 12 12 12 12 12 12 12 12 12 12 12 12 12 13 12 12 12 12 13 13 13 13 13 13 13 13 12 12 12
12 12 12 12 12 12 12 12 12 12 12 12 12 12 12 12 12 12 12 12 12 12 12 12 12 12 12 12 12 12 12 12 12 12 12 12 12 12
12 12 12 12 12 12 12 11 11 11 11 11 11 11 11 11 12 12 12 12 12 12 12 12 12 12 12 12 12 12 12 12 12 12 12 12 11 11
12 12 12 12 11 11 11 11 11 11 11 11 11 11 11 11 11 11 11 11 11 11 11 11 11 11 11 11 11 11 11 11 11 11 11 11 11 11
11 11 11 11 11 11 11 11 11 11 11 10 10 10 11 11 11 11 11 11 11 11 11 11 11 11 11 11 11 11 11 11 11 11 11 11 11 10
11 11 11 11 11 11 11 11 11 10 10 10 10 10 10 11 11 11 11 11 10 10 11 11 11 10 10 10 10 10 10 10 10 10 10 10 10 10
11 11 10 10 10 10 10 10 10 10 10 10 10 10 10 10 10 10 10 10 10 10 10 10 10 10 10 10 10 10 10 10 10 10 10 9 9 9
11 11 10 10 10 10 10 10 10 10 10 10 10 9 9 10 10 10 10 10 10 10 9 9 9 9 9 9 9 9 9 9 9 9 9 9 9 9
10 10 10 10 10 10 10 10 10 10 9 9 9 9 9 9 9 9 9 9 9 9 9 9 9 9 9 9 9 9 9 9 9 9 9 9 8 8
10 10 10 10 10 10 10 10 9 9 9 9 9 9 9 9 9 9 9 9 9 9 9 9 9 9 9 9 8 8 8 8 8 8 8 8 8 8
10 10 10 10 10 10 10 9 9 9 9 9 9 9 9 9 9 9 9 9 9 9 9 8 8 8 8 8 8 8 8 8 8 8 8 8 8 8
10 10 10 10 10 9 9 9 9 9 9 9 8 8 8 8 8 8 8 8 8 8 8 8 8 8 8 8 8 8 8 8 8 8 8 8 8 8
Wind_Speed
1 1 1 2 2 1 1 1 2 2 2 2 1 1 2 3 5 5 5 8 10 10 10 10 10 10 10 10 9 9 9 9 9 10 11 12 13 13
1 1 1 2 1 1 2 2 2 2 3 2 2 2 1 1 3 4 5 8 10 11 12 11 11 11 10 10 9 9 9 10 10 10 11 11 12 13
2 1 1 2 2 2 1 2 2 2 3 2 1 1 1 1 2 3 5 6 6 11 12 12 12 12 11 10 10 10 10 10 10 10 10 10 11 11
2 2 2 2 2 2 2 2 2 2 2 3 2 2 2 2 3 4 4 5 5 9 12 13 13 13 12 11 11 10 9 9 9 9 9 10 10 10
1 1 2 2 2 3 3 3 2 3 1 2 3 2 2 2 2 4 3 3 5 7 10 12 13 14 13 12 11 10 10 10 10 10 10 10 11 11
2 1 1 2 2 3 3 2 2 2 2 2 2 2 2 2 2 3 3 3 4 5 5 7 10 13 14 13 12 11 11 11 10 10 10 10 10 11
1 1 1 3 4 3 3 3 3 2 2 2 2 2 2 2 3 3 3 3 4 4 3 5 5 6 8 11 12 11 11 11 11 11 11 11 10 10
2 2 1 2 3 3 3 3 3 3 3 3 3 3 3 2 3 4 3 3 3 3 3 4 4 5 6 7 10 11 11 11 11 11 11 11 11 11
1 2 2 3 3 3 3 3 3 3 3 3 4 4 4 3 3 4 3 4 4 3 3 4 3 4 4 7 9 11 11 11 11 11 11 11 11 12
1 1 2 2 3 3 3 3 3 3 3 4 4 4 4 3 3 4 5 5 4 3 3 4 4 3 4 4 9 11 11 11 11 12 11 11 11 11
1 1 1 1 4 4 3 3 3 4 5 3 2 4 5 5 4 3 3 3 4 3 2 3 4 3 4 3 5 9 10 10 11 11 10 10 10 10
1 0 1 2 2 3 3 3 3 4 4 5 4 4 4 4 5 4 3 4 4 3 2 2 4 3 3 2 1 3 5 7 9 9 8 8 8 6
3 2 1 1 2 3 3 3 4 4 4 4 3 3 2 2 2 3 3 3 4 4 2 2 3 3 3 3 2 2 2 3 4 5 6 6 7 6
3 3 2 2 2 3 3 5 5 4 3 3 3 3 2 2 2 3 3 3 3 3 3 2 3 3 3 4 3 1 1 2 3 2 3 5 7 9
3 4 4 3 3 3 4 4 3 2 3 3 3 3 3 2 2 2 3 3 3 4 3 2 3 3 3 3 3 2 2 2 1 1 2 2 3 3
3 3 3 4 3 3 3 2 2 2 3 4 4 4 3 2 2 2 2 2 2 3 3 3 3 3 3 3 3 2 2 1 1 1 1 1 1 1
3 2 2 1 2 2 2 2 2 2 3 3 3 3 3 3 2 2 2 2 2 2 2 2 2 3 1 2 2 2 2 2 1 1 1 1 1 1
2 2 2 2 3 3 3 2 2 2 2 3 3 3 2 3 2 2 2 2 2 2 2 2 2 2 1 2 2 2 2 2 2 1 1 1 1 1
2 3 3 3 3 3 3 3 3 2 2 2 3 3 3 2 2 2 3 2 2 2 2 2 2 2 3 3 2 3 3 2 1 1 1 2 2 1
3 3 3 3 3 3 3 3 3 3 2 2 3 3 3 3 3 3 3 3 2 2 2 2 2 2 3 4 3 3 3 2 2 2 1 1 1 1
4 4 4 4 3 3 3 3 3 3 3 3 3 3 3 3 3 3 3 3 3 3 2 3 3 3 2 2 2 1 1 3 2 1 1 1 1 1
4 4 3 3 3 3 3 3 3 3 3 3 3 3 3 3 3 4 3 3 3 3 3 3 2 2 2 2 2 1 1 1 2 2 2 2 2 2
4 4 4 3 3 3 4 4 4 3 2 3 3 4 4 3 3 4 3 3 3 3 3 3 2 2 2 2 2 1 1 2 1 1 1 2 2 4
Wind_Direction
306 313 291 285 278 283 259 219 235 252 256 240 236 214 163 149 170 177 179 195 196 200 206 208 209 214 220 224 228 230 233 236 238 240 242 241 238 235
331 342 315 307 290 274 256 255 252 241 251 244 245 226 206 198 196 190 189 197 205 204 204 206 211 216 221 223 226 229 232 234 236 239 241 242 239 235
319 326 325 320 325 302 281 273 266 251 248 260 238 221 221 221 229 215 201 196 198 202 205 209 214 218 219 220 221 225 229 234 239 240 241 242 241 238
330 337 324 314 320 314 308 290 282 267 240 253 261 247 244 229 229 241 225 219 211 211 209 210 214 217 217 217 217 221 228 235 241 243 244 244 243 243
333 320 319 319 308 301 298 294 286 281 257 249 261 259 258 260 258 267 256 241 234 223 214 213 215 215 214 217 217 219 226 232 237 240 243 243 242 240
346 352 345 327 317 308 297 306 293 293 278 264 262 268 272 276 262 262 268 265 263 243 228 226 217 214 213 213 214 216 222 228 233 237 240 242 240 236
310 316 22 26 16 348 318 315 302 291 285 283 270 278 276 277 272 263 263 259 262 251 238 231 211 209 212 217 218 218 222 229 233 235 236 237 237 236
324 326 345 27 14 13 345 311 288 274 277 276 279 278 282 276 284 274 271 265 261 256 250 242 215 214 204 209 210 212 220 228 230 231 232 235 237 238
357 346 333 355 26 354 348 337 308 268 252 260 276 271 271 274 272 272 272 267 259 258 262 259 249 244 218 214 209 209 215 223 228 229 230 234 237 239
340 348 356 3 345 354 341 337 323 320 291 266 264 273 271 273 264 265 270 271 264 266 251 260 260 261 253 214 213 208 216 222 226 229 229 233 238 242
322 15 24 355 351 359 349 327 323 322 330 328 291 274 263 268 282 292 288 286 278 267 256 258 265 266 255 232 218 216 220 224 229 230 229 232 236 238
309 277 355 337 322 335 320 311 313 312 321 327 319 297 270 253 250 249 268 278 278 274 269 264 269 273 274 261 242 227 230 239 241 237 230 234 236 228
322 317 293 292 277 292 301 297 290 299 302 297 298 295 271 248 234 238 251 261 271 273 292 295 279 269 261 277 283 240 217 216 230 246 235 230 229 223
308 320 328 291 273 279 290 300 295 302 296 296 297 298 299 290 275 252 254 252 257 270 294 304 288 282 275 280 286 278 250 224 203 215 218 223 227 234
311 314 311 287 278 272 273 291 298 299 295 297 296 293 286 284 288 274 260 243 256 271 272 269 276 281 272 271 275 279 271 260 217 223 218 207 213 221
309 309 277 263 264 275 286 288 274 288 291 293 296 295 300 309 308 307 300 300 287 279 265 265 266 273 273 276 279 288 289 262 265 232 236 239 220 213
325 307 304 306 296 290 283 261 254 261 274 286 290 301 315 320 313 308 299 293 290 295 302 284 253 241 267 302 297 313 319 309 295 274 259 268 260 212
316 301 308 305 297 294 285 282 275 278 279 287 295 296 298 302 308 311 304 295 298 303 309 314 317 302 297 331 318 292 288 289 298 282 236 241 247 214
255 275 285 287 284 284 290 292 283 276 285 289 292 291 292 293 295 295 293 288 292 296 301 305 308 295 285 285 300 324 299 282 275 272 253 248 245 230
255 268 274 276 276 283 291 294 297 294 287 294 299 295 293 298 301 294 290 287 286 290 296 303 288 268 268 273 281 297 316 302 277 255 267 285 280 208
272 275 283 291 295 294 290 290 288 282 285 282 283 286 284 285 287 289 293 299 296 293 292 289 281 270 261 274 275 274 328 346 335 287 264 261 269 266
274 276 278 282 287 292 289 281 281 279 275 280 285 281 282 285 283 281 283 286 285 284 289 287 276 277 266 261 272 276 294 316 340 349 326 274 234 231
277 283 278 274 272 273 283 286 286 287 280 272 281 289 292 289 285 285 285 283 288 293 295 291 279 273 268 260 262 262 260 250 257 267 311 291 227 215
Height
1519 1519 1519 1520 1521 1521 1521 1522 1523 1522 1522 1523 1523 1523 1523 1522 1522 1522 1522 1522 1523 1523 1523 1524 1524 1524 1524 1524 1525 1525 1526 1526 1526 1527 1527 1528 1529 1529
1518 1518 1518 1518 1518 1519 1519 1520 1520 1520 1520 1520 1520 1520 1520 1520 1520 1520 1520 1520 1520 1520 1521 1521 1521 1521 1521 1521 1522 1522 1522 1522 1523 1523 1523 1523 1524 1525
1516 1516 1516 1516 1516 1516 1517 1517 1517 1518 1517 1517 1517 1517 1517 1517 1516 1517 1517 1517 1517 1517 1517 1518 1518 1518 1518 1518 1518 1519 1519 1519 1519 1519 1519 1519 1519 1520
1514 1514 1514 1514 1514 1514 1514 1514 1515 1515 1515 1514 1514 1515 1514 1514 1514 1514 1514 1514 1514 1514 1514 1514 1514 1514 1514 1515 1515 1515 1515 1515 1515 1515 1515 1515 1515 1515
1512 1512 1512 1512 1511 1511 1512 1511 1512 1512 1512 1511 1511 1511 1511 1511 1511 1511 1511 1511 1511 1510 1511 1511 1510 1510 1511 1511 1511 1511 1511 1511 1511 1511 1511 1511 1511 1511
1510 1510 1510 1509 1509 1509 1509 1509 1509 1509 1509 1508 1508 1508 1507 1507 1507 1507 1506 1506 1507 1507 1507 1507 1507 1507 1507 1507 1507 1507 1507 1507 1507 1507 1507 1506 1506 1507
1508 1508 1507 1507 1507 1507 1506 1506 1506 1505 1505 1505 1505 1504 1504 1503 1503 1503 1503 1502 1502 1503 1503 1503 1503 1503 1502 1503 1503 1503 1503 1503 1503 1502 1502 1502 1502 1503
1505 1505 1505 1504 1504 1503 1503 1503 1503 1503 1502 1501 1501 1500 1500 1500 1500 1499 1499 1499 1498 1499 1499 1499 1500 1499 1499 1499 1499 1499 1499 1499 1498 1498 1498 1498 1498 1498
1503 1502 1502 1502 1501 1500 1499 1499 1499 1499 1499 1499 1498 1497 1496 1496 1496 1495 1495 1495 1495 1495 1496 1495 1496 1495 1495 1495 1495 1495 1495 1495 1494 1494 1494 1494 1494 1494
1500 1500 1499 1498 1498 1497 1496 1495 1495 1495 1495 1495 1494 1493 1493 1493 1493 1493 1492 1492 1492 1492 1492 1491 1491 1491 1491 1491 1491 1491 1491 1491 1490 1490 1490 1490 1490 1490
1497 1497 1496 1495 1495 1494 1493 1492 1491 1491 1492 1491 1491 1490 1489 1489 1489 1489 1488 1488 1487 1487 1488 1488 1487 1487 1487 1487 1487 1487 1486 1486 1486 1486 1486 1486 1486 1486
1494 1493 1493 1492 1492 1491 1490 1489 1488 1488 1488 1487 1487 1486 1486 1485 1485 1485 1484 1484 1484 1483 1483 1484 1483 1483 1483 1482 1483 1482 1482 1482 1482 1482 1482 1482 1482 1482
1491 1491 1490 1489 1489 1488 1488 1487 1487 1486 1485 1485 1484 1483 1483 1482 1482 1481 1481 1481 1481 1480 1480 1480 1479 1479 1479 1478 1478 1478 1478 1477 1477 1477 1477 1477 1478 1478
1489 1488 1488 1487 1486 1486 1485 1485 1485 1484 1483 1482 1481 1481 1480 1480 1479 1479 1479 1478 1478 1477 1477 1477 1476 1475 1475 1475 1474 1474 1474 1473 1473 1473 1473 1473 1473 1473
1487 1486 1486 1485 1484 1483 1483 1483 1482 1481 1481 1480 1479 1479 1478 1477 1477 1476 1475 1475 1475 1474 1474 1474 1473 1472 1472 1471 1470 1470 1470 1469 1469 1469 1469 1469 1468 1468
1485 1484 1484 1483 1482 1482 1481 1480 1480 1479 1479 1478 1477 1477 1476 1475 1474 1473 1472 1471 1471 1470 1471 1470 1470 1469 1468 1467 1467 1466 1466 1466 1465 1465 1465 1464 1464 1464
1483 1482 1481 1481 1480 1479 1479 1478 1477 1477 1476 1476 1475 1474 1473 1472 1471 1470 1470 1469 1468 1467 1467 1467 1466 1466 1466 1465 1464 1463 1463 1463 1462 1462 1461 1461 1460 1460
1482 1480 1480 1479 1478 1477 1477 1476 1475 1474 1474 1473 1472 1471 1470 1469 1469 1468 1467 1466 1465 1465 1464 1463 1463 1463 1462 1461 1461 1460 1460 1459 1459 1458 1458 1457 1456 1456
1480 1479 1478 1477 1477 1476 1475 1474 1473 1472 1471 1470 1469 1468 1467 1467 1466 1465 1464 1463 1463 1462 1461 1461 1460 1460 1459 1458 1458 1458 1457 1456 1456 1455 1455 1454 1454 1453
1478 1477 1476 1476 1475 1474 1473 1472 1471 1470 1468 1467 1466 1465 1465 1464 1463 1462 1461 1461 1460 1459 1458 1457 1457 1457 1456 1455 1454 1454 1454 1453 1452 1452 1451 1451 1451 1451
1476 1475 1474 1473 1472 1471 1470 1469 1468 1466 1465 1464 1463 1462 1461 1461 1460 1459 1459 1458 1457 1456 1455 1454 1454 1454 1453 1452 1452 1450 1450 1450 1449 1449 1449 1448 1447 1447
1472 1471 1470 1469 1468 1467 1467 1465 1464 1463 1462 1461 1460 1459 1458 1457 1456 1456 1455 1455 1454 1453 1452 1451 1451 1450 1450 1449 1448 1447 1447 1447 1446 1446 1446 1446 1445 1445
1469 1467 1466 1465 1464 1463 1463 1462 1461 1459 1458 1457 1456 1455 1454 1453 1453 1452 1451 1451 1450 1450 1448 1448 1447 1447 1446 1446 1446 1445 1445 1444 1444 1444 1444 1443 1444 1444